Location: Hope
(40.9110°N, 74.9680°W)
Time: 03:41:37
(UTC-05:00)

FORTE - Pass Details

Date: 07 December 2021
Orbit: 785 x 822 km, 70.0° (Epoch: 22 January)

Event Time Altitude Azimuth Distance (km) Brightness Sun altitude
Rises 04:39:28 0° 178° (S) 3,259 10.4 -27.9°
Reaches altitude 10° 04:42:02 10° 169° (S) 2,337 9.7 -27.4°
Maximum altitude 04:46:47 34° 106° (ESE) 1,289 8.7 -26.5°
Drops below altitude 10° 04:51:35 10° 43° (NE) 2,365 9.9 -25.6°
Sets 04:54:11 0° 34° (NE) 3,304 10.6 -25.1°
